KRP422 LRTR-LOWW

Flight info

Callsign KRP422
Flight time N/A
Altitude 36000
Route MOPUG DCT VAJDI DCT NATEX NATEX2W
Aircraft A319/M-SDE3FGHIRWY/LB1

Departure

Time 2026-04-22 18:35
Airport Timișoara Traian Vuia International Airport (LRTR)

Arrival

Time N/A
Airport Vienna International Airport (LOWW)
Time Latitude Longitude Altitude Speed Heading
2026-04-22 18:07 45.81041 21.32186 345 ft 0 kts 200°
2026-04-22 18:20 45.81053 21.32193 345 ft 2 kts 200°
2026-04-22 18:20 45.81067 21.32201 346 ft 2 kts 200°
2026-04-22 18:20 45.81081 21.32208 346 ft 1 kts 200°
2026-04-22 18:21 45.81089 21.32212 346 ft 1 kts 173°
2026-04-22 18:21 45.81102 21.32202 345 ft 1 kts 119°
2026-04-22 18:21 45.81103 21.32194 345 ft 1 kts 103°
2026-04-22 18:21 45.81105 21.32188 345 ft 0 kts 109°
2026-04-22 18:22 45.81105 21.32189 345 ft 0 kts 109°
2026-04-22 18:24 45.81104 21.32190 345 ft 0 kts 109°
2026-04-22 18:24 45.81098 21.32216 345 ft 5 kts 109°
2026-04-22 18:24 45.81057 21.32384 346 ft 10 kts 109°
2026-04-22 18:25 45.81076 21.32470 346 ft 10 kts 38°
2026-04-22 18:25 45.81076 21.32574 346 ft 12 kts 111°
2026-04-22 18:25 45.81046 21.32695 347 ft 14 kts 109°
2026-04-22 18:26 45.80971 21.32993 348 ft 16 kts 109°
2026-04-22 18:26 45.80931 21.33153 348 ft 17 kts 110°
2026-04-22 18:26 45.80888 21.33320 348 ft 18 kts 109°
2026-04-22 18:26 45.80864 21.33480 348 ft 12 kts 76°
2026-04-22 18:27 45.80907 21.33539 348 ft 0 kts 20°
2026-04-22 18:31 45.80919 21.33546 348 ft 4 kts 20°
2026-04-22 18:31 45.80968 21.33571 348 ft 10 kts 20°
2026-04-22 18:31 45.81009 21.33666 348 ft 13 kts 96°
2026-04-22 18:31 45.80981 21.33798 348 ft 15 kts 109°
2026-04-22 18:32 45.80941 21.33955 348 ft 18 kts 110°
2026-04-22 18:32 45.80895 21.34142 348 ft 20 kts 108°
2026-04-22 18:32 45.80846 21.34334 347 ft 21 kts 110°
2026-04-22 18:32 45.80793 21.34542 347 ft 22 kts 110°
2026-04-22 18:33 45.80739 21.34758 347 ft 23 kts 109°
2026-04-22 18:33 45.80683 21.34982 346 ft 24 kts 109°
2026-04-22 18:33 45.80625 21.35214 345 ft 24 kts 109°
2026-04-22 18:33 45.80566 21.35404 344 ft 12 kts 126°
2026-04-22 18:34 45.80577 21.35409 344 ft 9 kts 276°
2026-04-22 18:34 45.80584 21.35376 344 ft 0 kts 290°
2026-04-22 18:34 45.80639 21.35159 345 ft 63 kts 289°
2026-04-22 18:34 45.80877 21.34203 348 ft 136 kts 289°
2026-04-22 18:35 45.81239 21.32737 634 ft 169 kts 291°
2026-04-22 18:35 45.81631 21.31186 1505 ft 167 kts 294°
2026-04-22 18:35 45.82008 21.29648 2370 ft 169 kts 295°
2026-04-22 18:35 45.82414 21.28016 2999 ft 183 kts 295°
2026-04-22 18:36 45.82864 21.26263 3672 ft 195 kts 295°
2026-04-22 18:36 45.83353 21.24370 4229 ft 216 kts 295°
2026-04-22 18:36 45.83885 21.22280 4864 ft 235 kts 294°
2026-04-22 18:36 45.84463 21.19978 5517 ft 254 kts 294°
2026-04-22 18:37 45.85068 21.17551 6238 ft 268 kts 294°
2026-04-22 18:37 45.85689 21.15044 7173 ft 273 kts 294°
2026-04-22 18:37 45.86327 21.12470 8189 ft 277 kts 294°
2026-04-22 18:37 45.86972 21.09869 9116 ft 280 kts 294°
2026-04-22 18:38 45.87619 21.07260 10072 ft 283 kts 294°
2026-04-22 18:38 45.88286 21.04612 10916 ft 290 kts 296°
2026-04-22 18:38 45.89286 21.02077 11475 ft 299 kts 311°
2026-04-22 18:39 45.92398 20.98051 13142 ft 306 kts 324°
2026-04-22 18:39 45.94085 20.96166 13968 ft 311 kts 324°
2026-04-22 18:39 45.95781 20.94266 14745 ft 315 kts 324°
2026-04-22 18:39 45.97519 20.92308 15535 ft 319 kts 324°
2026-04-22 18:40 45.99257 20.90341 16298 ft 323 kts 324°
2026-04-22 18:40 46.01033 20.88323 17062 ft 326 kts 324°
2026-04-22 18:40 46.02797 20.86319 17799 ft 329 kts 324°
2026-04-22 18:40 46.04590 20.84277 18518 ft 332 kts 324°
2026-04-22 18:41 46.06421 20.82188 19222 ft 336 kts 324°
2026-04-22 18:41 46.08246 20.80108 19894 ft 339 kts 324°
2026-04-22 18:41 46.10101 20.77987 20567 ft 343 kts 324°
2026-04-22 18:41 46.11970 20.75850 21254 ft 346 kts 324°
2026-04-22 18:42 46.13850 20.73699 21914 ft 348 kts 324°
2026-04-22 18:42 46.15666 20.71399 22550 ft 353 kts 319°
2026-04-22 18:42 46.17288 20.68932 23148 ft 358 kts 314°
2026-04-22 18:42 46.18538 20.66695 23625 ft 362 kts 311°
2026-04-22 18:43 46.20055 20.63812 24211 ft 366 kts 311°
2026-04-22 18:43 46.21307 20.61403 24666 ft 369 kts 311°
2026-04-22 18:43 46.22735 20.58649 25170 ft 372 kts 311°
2026-04-22 18:43 46.24325 20.55585 25715 ft 376 kts 311°
2026-04-22 18:44 46.25892 20.52558 26243 ft 379 kts 311°
2026-04-22 18:44 46.27436 20.49577 26738 ft 382 kts 311°
2026-04-22 18:44 46.29018 20.46520 27239 ft 385 kts 311°
2026-04-22 18:44 46.30474 20.43707 27673 ft 388 kts 311°
2026-04-22 18:45 46.31687 20.41361 28021 ft 391 kts 311°
2026-04-22 18:45 46.33332 20.38178 28478 ft 395 kts 311°
2026-04-22 18:45 46.34972 20.35002 28938 ft 398 kts 311°
2026-04-22 18:45 46.36642 20.31765 29414 ft 401 kts 310°
2026-04-22 18:46 46.38305 20.28537 29826 ft 405 kts 310°
2026-04-22 18:46 46.40007 20.25232 30261 ft 408 kts 310°
2026-04-22 18:46 46.41258 20.22794 30583 ft 410 kts 310°
2026-04-22 18:46 46.42973 20.19452 30956 ft 414 kts 311°
2026-04-22 18:47 46.44678 20.16122 31332 ft 416 kts 311°
2026-04-22 18:47 46.45794 20.13944 31601 ft 416 kts 310°
2026-04-22 18:47 46.47545 20.10521 32107 ft 414 kts 310°
2026-04-22 18:47 46.49271 20.07141 32568 ft 413 kts 310°
2026-04-22 18:48 46.50964 20.03828 32999 ft 413 kts 310°
2026-04-22 18:48 46.52256 20.01295 33310 ft 412 kts 310°
2026-04-22 18:48 46.53943 19.97985 33732 ft 411 kts 310°
2026-04-22 18:48 46.55676 19.94574 34119 ft 411 kts 310°
2026-04-22 18:49 46.57369 19.91244 34497 ft 411 kts 310°
2026-04-22 18:49 46.59053 19.87927 34889 ft 412 kts 310°
2026-04-22 18:49 46.60751 19.84575 35228 ft 414 kts 310°
2026-04-22 18:49 46.62455 19.81210 35539 ft 415 kts 309°
2026-04-22 18:50 46.64161 19.77833 35867 ft 417 kts 309°
2026-04-22 18:50 46.65884 19.74417 36103 ft 420 kts 310°
2026-04-22 18:50 46.69338 19.67568 36122 ft 421 kts 310°
2026-04-22 18:51 46.72779 19.60723 36124 ft 420 kts 309°
2026-04-22 18:51 46.76210 19.53880 36125 ft 421 kts 310°
2026-04-22 18:52 46.79662 19.46981 36136 ft 421 kts 310°
2026-04-22 18:52 46.83099 19.40095 36138 ft 421 kts 310°
2026-04-22 18:53 46.86522 19.33217 36133 ft 422 kts 309°
2026-04-22 18:53 46.89985 19.26241 36140 ft 423 kts 309°
2026-04-22 18:54 46.92959 19.20241 36143 ft 424 kts 309°
2026-04-22 18:54 46.96132 19.13823 36156 ft 424 kts 309°
2026-04-22 18:55 46.99211 19.07582 36100 ft 425 kts 309°
2026-04-22 18:55 47.00938 19.04075 35870 ft 424 kts 309°
2026-04-22 18:55 47.02666 19.00556 35631 ft 422 kts 309°
2026-04-22 18:56 47.03695 18.98462 35499 ft 420 kts 309°
2026-04-22 18:56 47.05407 18.94968 35181 ft 419 kts 310°
2026-04-22 18:56 47.07104 18.91508 34644 ft 420 kts 310°
2026-04-22 18:56 47.08812 18.88021 34110 ft 421 kts 310°
2026-04-22 18:57 47.10530 18.84504 33579 ft 424 kts 310°
2026-04-22 18:57 47.12249 18.80986 32970 ft 430 kts 310°
2026-04-22 18:57 47.14004 18.77389 32221 ft 439 kts 310°
2026-04-22 18:57 47.15791 18.73717 31531 ft 445 kts 311°
2026-04-22 18:58 47.17606 18.69983 30859 ft 447 kts 311°
2026-04-22 18:58 47.19407 18.66279 30174 ft 446 kts 311°
2026-04-22 18:58 47.21189 18.62601 29590 ft 442 kts 311°
2026-04-22 18:58 47.22388 18.60123 29231 ft 439 kts 311°
2026-04-22 18:59 47.23537 18.57750 28919 ft 435 kts 311°
2026-04-22 18:59 47.25275 18.54154 28446 ft 428 kts 311°
2026-04-22 18:59 47.26983 18.50611 27980 ft 422 kts 311°
2026-04-22 18:59 47.28676 18.47098 27528 ft 415 kts 311°
2026-04-22 19:00 47.30331 18.43664 27101 ft 408 kts 311°
2026-04-22 19:00 47.31953 18.40288 26665 ft 402 kts 311°
2026-04-22 19:00 47.32294 18.39577 26581 ft 401 kts 311°
2026-04-22 19:00 47.33600 18.36859 26232 ft 396 kts 311°
2026-04-22 19:01 47.35119 18.33691 25819 ft 391 kts 310°
2026-04-22 19:01 47.36675 18.30443 25369 ft 386 kts 310°
2026-04-22 19:01 47.38208 18.27246 24961 ft 381 kts 310°
2026-04-22 19:01 47.39724 18.24085 24576 ft 375 kts 310°
2026-04-22 19:02 47.41221 18.20958 24159 ft 370 kts 310°
2026-04-22 19:02 47.42695 18.17873 23733 ft 366 kts 310°
2026-04-22 19:02 47.44166 18.14792 23304 ft 362 kts 310°
2026-04-22 19:02 47.45608 18.11768 22892 ft 359 kts 310°
2026-04-22 19:03 47.47046 18.08734 22497 ft 359 kts 309°
2026-04-22 19:03 47.48043 18.06552 22304 ft 362 kts 309°
2026-04-22 19:03 47.48230 18.06138 22269 ft 362 kts 309°
2026-04-22 19:03 47.49088 18.04222 22112 ft 363 kts 309°
2026-04-22 19:04 47.50500 18.01058 21823 ft 361 kts 308°
2026-04-22 19:04 47.51870 17.97982 21565 ft 360 kts 308°
2026-04-22 19:04 47.53247 17.94885 21290 ft 357 kts 309°
2026-04-22 19:04 47.54613 17.91827 20701 ft 358 kts 309°
2026-04-22 19:05 47.56003 17.88727 19818 ft 366 kts 309°
2026-04-22 19:05 47.57399 17.85610 19209 ft 365 kts 308°
2026-04-22 19:05 47.58799 17.82464 18721 ft 362 kts 308°
2026-04-22 19:05 47.60166 17.79385 18238 ft 358 kts 308°
2026-04-22 19:06 47.61243 17.76959 17849 ft 356 kts 308°
2026-04-22 19:06 47.62333 17.74498 17450 ft 354 kts 308°
2026-04-22 19:07 47.65021 17.68428 16502 ft 348 kts 308°
2026-04-22 19:07 47.66349 17.65426 16047 ft 345 kts 308°
2026-04-22 19:07 47.67543 17.62722 15615 ft 342 kts 308°
2026-04-22 19:07 47.67785 17.62172 15530 ft 342 kts 308°
2026-04-22 19:08 47.68939 17.59551 15139 ft 339 kts 308°
2026-04-22 19:08 47.70214 17.56654 14706 ft 337 kts 308°
2026-04-22 19:08 47.71490 17.53755 14222 ft 334 kts 308°
2026-04-22 19:08 47.72765 17.50852 13798 ft 331 kts 308°
2026-04-22 19:09 47.74015 17.48007 13316 ft 329 kts 307°
2026-04-22 19:09 47.75255 17.45180 12840 ft 326 kts 308°
2026-04-22 19:09 47.76481 17.42383 12363 ft 324 kts 307°
2026-04-22 19:09 47.77215 17.40704 12081 ft 322 kts 307°
2026-04-22 19:10 47.77507 17.40035 11967 ft 322 kts 307°
2026-04-22 19:10 47.78684 17.37344 11579 ft 316 kts 307°
2026-04-22 19:10 47.79875 17.34615 11207 ft 310 kts 307°
2026-04-22 19:10 47.81049 17.31920 10822 ft 305 kts 307°
2026-04-22 19:11 47.82185 17.29310 10415 ft 300 kts 307°
2026-04-22 19:11 47.83319 17.26710 10011 ft 295 kts 307°
2026-04-22 19:11 47.84433 17.24150 9689 ft 291 kts 307°
2026-04-22 19:11 47.85524 17.21639 9258 ft 286 kts 307°
2026-04-22 19:12 47.86595 17.19170 8895 ft 281 kts 307°
2026-04-22 19:12 47.87652 17.16736 8549 ft 277 kts 307°
2026-04-22 19:12 47.88353 17.15118 8338 ft 274 kts 307°
2026-04-22 19:12 47.88368 17.15085 8335 ft 274 kts 307°
2026-04-22 19:13 47.89348 17.12824 8048 ft 270 kts 307°
2026-04-22 19:13 47.90348 17.10511 7695 ft 265 kts 307°
2026-04-22 19:13 47.91338 17.08221 7334 ft 261 kts 307°
2026-04-22 19:13 47.92326 17.05937 7030 ft 259 kts 307°
2026-04-22 19:14 47.93306 17.03668 6635 ft 257 kts 307°
2026-04-22 19:14 47.94159 17.01694 6378 ft 255 kts 307°
2026-04-22 19:15 47.95612 16.98324 5817 ft 252 kts 307°
2026-04-22 19:15 47.96538 16.96178 5438 ft 251 kts 307°
2026-04-22 19:15 47.97471 16.94010 5090 ft 249 kts 307°
2026-04-22 19:15 47.98407 16.91828 4715 ft 248 kts 307°
2026-04-22 19:16 47.99342 16.89656 4404 ft 243 kts 309°
2026-04-22 19:16 48.00424 16.87757 4086 ft 236 kts 316°
2026-04-22 19:16 48.01453 16.85860 3819 ft 234 kts 308°
2026-04-22 19:16 48.02304 16.83777 3590 ft 230 kts 304°
2026-04-22 19:17 48.02314 16.83749 3587 ft 230 kts 304°
2026-04-22 19:17 48.02775 16.82503 3456 ft 227 kts 302°
2026-04-22 19:17 48.03310 16.80965 3292 ft 224 kts 302°
2026-04-22 19:17 48.03927 16.79103 3214 ft 214 kts 301°